Station Historical Data
Daily Summary for August 16, 2017 Units:  English    Metric   Both
« Previous Day
Next Day »
Daily Weekly Monthly Yearly Custom
  High: Low: Average:
Temperature: 89.3 °F 72.2 °F 80.4 °F
Dew Point: 74.9 °F 69.7 °F 72.7 °F
Humidity: 93% 58% 79%
Wind Speed: 1.0mph 0.0mph 0mph
Wind Gust: 5.0mph - -
Wind- - SW
Pressure: 30.09 in 29.97 in -
Precipitation: 0.00 in    
Historical Graphs
 
 
Tabular Data for August 16, 2017
Time Temperature Dew Point Pressure Wind Wind Speed Wind Gust Humidity Rainfall Rate (Hourly) Conditions
00:00 76.5 °F 72.3 °F 29.98 in Calm     87% 0.00 in BKN
00:05 76.5 °F 72.3 °F 29.98 in Calm     87% 0.00 in BKN
00:10 76.5 °F 72.6 °F 29.98 in Calm     88% 0.00 in BKN
00:15 76.4 °F 72.2 °F 29.98 in Calm     87% 0.00 in SCT
00:20 76.4 °F 72.6 °F 29.98 in Calm     88% 0.00 in SCT
00:25 76.4 °F 72.6 °F 29.98 in Calm     88% 0.00 in SCT
00:30 76.3 °F 72.5 °F 29.98 in Calm     88% 0.00 in SCT
00:35 76.2 °F 72.4 °F 29.98 in Calm     88% 0.00 in SCT
00:40 76.1 °F 72.3 °F 29.97 in Calm     88% 0.00 in SCT
00:45 76.1 °F 72.3 °F 29.97 in Calm     88% 0.00 in SCT
00:50 76.0 °F 72.2 °F 29.97 in Calm     88% 0.00 in SCT
00:55 75.9 °F 72.1 °F 29.98 in Calm     88% 0.00 in SCT
01:00 75.9 °F 72.1 °F 29.98 in Calm     88% 0.00 in SCT
01:05 75.8 °F 72.3 °F 29.98 in Calm     89% 0.00 in SCT
01:10 75.7 °F 72.2 °F 29.98 in Calm     89% 0.00 in SCT
01:15 75.6 °F 72.1 °F 29.99 in Calm     89% 0.00 in CLR
01:20 75.5 °F 72.0 °F 29.98 in Calm     89% 0.00 in CLR
01:25 75.4 °F 71.9 °F 29.98 in Calm     89% 0.00 in CLR
01:30 75.3 °F 71.8 °F 29.98 in Calm     89% 0.00 in CLR
01:35 75.3 °F 71.8 °F 29.98 in Calm     89% 0.00 in CLR
01:40 75.2 °F 72.0 °F 29.98 in Calm     90% 0.00 in CLR
01:45 75.1 °F 72.0 °F 29.98 in Calm     90% 0.00 in CLR
01:50 75.0 °F 71.9 °F 29.98 in Calm     90% 0.00 in CLR
01:55 74.9 °F 71.8 °F 29.99 in Calm     90% 0.00 in CLR
02:00 74.9 °F 71.8 °F 29.99 in Calm     90% 0.00 in CLR
02:05 74.9 °F 71.8 °F 29.99 in Calm     90% 0.00 in CLR
02:10 74.9 °F 71.8 °F 29.99 in Calm     90% 0.00 in CLR
02:15 74.9 °F 72.1 °F 29.99 in Calm     91% 0.00 in BKN
02:20 74.9 °F 72.1 °F 29.99 in Calm     91% 0.00 in BKN
02:25 75.0 °F 72.2 °F 29.99 in Calm     91% 0.00 in BKN
02:30 75.0 °F 72.2 °F 29.99 in Calm     91% 0.00 in BKN
02:35 75.1 °F 72.3 °F 29.99 in Calm     91% 0.00 in BKN
02:40 75.2 °F 72.4 °F 29.99 in Calm     91% 0.00 in BKN
02:45 75.2 °F 72.4 °F 29.99 in Calm     91% 0.00 in BKN
02:50 75.3 °F 72.2 °F 29.99 in Calm     90% 0.00 in BKN
02:55 75.3 °F 72.2 °F 29.99 in Calm     90% 0.00 in FEW
03:00 75.3 °F 72.2 °F 29.99 in Calm     90% 0.00 in FEW
03:05 75.3 °F 72.2 °F 29.99 in Calm     90% 0.00 in FEW
03:10 75.3 °F 72.2 °F 29.99 in Calm     90% 0.00 in FEW
03:25 75.2 °F 72.1 °F 30.00 in Calm     90% 0.00 in BKN
03:30 75.1 °F 72.0 °F 30.00 in Calm     90% 0.00 in BKN
03:35 75.1 °F 72.0 °F 30.00 in Calm     90% 0.00 in BKN
03:40 75.0 °F 71.9 °F 30.00 in Calm     90% 0.00 in BKN
03:45 75.0 °F 71.9 °F 30.00 in Calm     90% 0.00 in BKN
03:50 74.9 °F 71.8 °F 30.00 in Calm     90% 0.00 in BKN
03:55 74.9 °F 71.8 °F 30.00 in Calm     90% 0.00 in BKN
04:00 74.8 °F 71.7 °F 30.00 in Calm     90% 0.00 in BKN
04:05 74.7 °F 71.6 °F 30.00 in Calm     90% 0.00 in BKN
04:10 74.6 °F 71.1 °F 30.00 in Calm     89% 0.00 in BKN
04:15 74.5 °F 71.0 °F 30.00 in Calm     89% 0.00 in BKN
04:20 74.4 °F 70.9 °F 30.00 in Calm     89% 0.00 in BKN
04:30 74.2 °F 70.7 °F 30.00 in Calm     89% 0.00 in BKN
04:35 74.1 °F 70.6 °F 30.00 in Calm     89% 0.00 in BKN
04:40 74.0 °F 70.6 °F 30.00 in Calm     89% 0.00 in BKN
04:45 73.9 °F 70.5 °F 30.00 in Calm     89% 0.00 in BKN
04:50 73.9 °F 70.4 °F 30.00 in Calm     89% 0.00 in BKN
04:55 73.8 °F 70.4 °F 30.00 in Calm     89% 0.00 in BKN
05:00 73.7 °F 70.3 °F 30.00 in Calm     89% 0.00 in BKN
05:05 73.6 °F 70.5 °F 30.00 in Calm     90% 0.00 in BKN
05:10 73.5 °F 70.4 °F 30.01 in Calm     90% 0.00 in BKN
05:15 73.5 °F 70.4 °F 30.01 in Calm     90% 0.00 in BKN
05:20 73.4 °F 70.3 °F 30.01 in Calm     90% 0.00 in BKN
05:25 73.3 °F 70.2 °F 30.01 in Calm     90% 0.00 in BKN
05:35 73.1 °F 70.0 °F 30.01 in Calm     90% 0.00 in BKN
05:40 73.0 °F 69.9 °F 30.01 in Calm     90% 0.00 in BKN
05:45 72.9 °F 69.8 °F 30.01 in Calm     90% 0.00 in BKN
05:50 72.8 °F 70.0 °F 30.02 in Calm     91% 0.00 in BKN
05:55 72.7 °F 69.9 °F 30.02 in Calm     91% 0.00 in BKN
06:00 72.7 °F 69.9 °F 30.02 in Calm     91% 0.00 in BKN
06:05 72.6 °F 69.8 °F 30.02 in Calm     91% 0.00 in BKN
06:10 72.5 °F 69.7 °F 30.02 in Calm     91% 0.00 in BKN
06:15 72.5 °F 70.0 °F 30.03 in Calm     92% 0.00 in SCT
06:20 72.4 °F 69.9 °F 30.03 in Calm     92% 0.00 in SCT
06:25 72.4 °F 69.9 °F 30.03 in Calm     92% 0.00 in SCT
06:30 72.3 °F 69.8 °F 30.03 in Calm     92% 0.00 in SCT
06:35 72.3 °F 69.8 °F 30.04 in Calm     92% 0.00 in SCT
06:40 72.2 °F 69.8 °F 30.04 in Calm     92% 0.00 in SCT
06:45 72.2 °F 69.7 °F 30.04 in Calm     92% 0.00 in SCT
06:50 72.2 °F 69.7 °F 30.04 in Calm     92% 0.00 in SCT
06:55 72.2 °F 69.7 °F 30.05 in Calm     92% 0.00 in SCT
07:00 72.2 °F 69.7 °F 30.05 in Calm     92% 0.00 in SCT
07:10 72.3 °F 69.8 °F 30.05 in Calm     92% 0.00 in SCT
07:15 72.4 °F 70.3 °F 30.05 in Calm     93% 0.00 in BKN
07:25 72.5 °F 70.4 °F 30.06 in Calm     93% 0.00 in BKN
07:30 72.6 °F 70.4 °F 30.06 in Calm     93% 0.00 in BKN
07:35 72.6 °F 70.5 °F 30.06 in Calm     93% 0.00 in BKN
07:40 72.7 °F 70.6 °F 30.06 in Calm     93% 0.00 in BKN
07:45 72.8 °F 70.3 °F 30.06 in Calm     92% 0.00 in BKN
07:55 73.0 °F 70.5 °F 30.06 in Calm     92% 0.00 in BKN
08:00 73.1 °F 70.6 °F 30.06 in Calm     92% 0.00 in BKN
08:10 73.3 °F 70.8 °F 30.06 in Calm     92% 0.00 in BKN
08:15 73.4 °F 71.0 °F 30.07 in Calm     92% 0.00 in OVC
08:20 73.5 °F 70.7 °F 30.07 in Calm     91% 0.00 in OVC
08:25 73.7 °F 70.9 °F 30.07 in Calm     91% 0.00 in OVC
08:30 73.8 °F 71.0 °F 30.07 in Calm     91% 0.00 in OVC
08:40 74.1 °F 71.3 °F 30.07 in Calm     91% 0.00 in OVC
08:45 74.2 °F 71.4 °F 30.07 in Calm     91% 0.00 in OVC
08:50 74.3 °F 71.5 °F 30.07 in Calm     91% 0.00 in OVC
08:55 74.4 °F 71.2 °F 30.08 in Calm     90% 0.00 in OVC
09:00 74.4 °F 71.3 °F 30.08 in Calm     90% 0.00 in OVC
09:05 74.6 °F 71.5 °F 30.08 in Calm     90% 0.00 in OVC
09:10 74.9 °F 71.7 °F 30.08 in Calm   1.0 mph 90% 0.00 in OVC
09:15 75.2 °F 72.1 °F 30.08 in Calm   1.0 mph 90% 0.00 in BKN
09:20 75.7 °F 72.2 °F 30.08 in Calm     89% 0.00 in BKN
09:25 76.2 °F 72.1 °F 30.08 in Calm   1.0 mph 87% 0.00 in BKN
09:30 76.9 °F 72.8 °F 30.08 in Calm   1.0 mph 87% 0.00 in BKN
09:35 77.4 °F 72.9 °F 30.08 in Calm   2.0 mph 86% 0.00 in BKN
09:40 77.6 °F 72.7 °F 30.08 in Calm   1.0 mph 85% 0.00 in BKN
09:45 78.0 °F 73.1 °F 30.08 in Calm   1.0 mph 85% 0.00 in BKN
09:50 78.4 °F 73.2 °F 30.08 in Calm   2.0 mph 84% 0.00 in BKN
10:00 79.3 °F 73.3 °F 30.09 in Calm   2.0 mph 82% 0.00 in BKN
10:05 79.7 °F 73.3 °F 30.09 in WSW 1.0 mph 2.0 mph 81% 0.00 in BKN
10:10 80.0 °F 73.3 °F 30.09 in Calm   1.0 mph 80% 0.00 in BKN
10:15 80.5 °F 73.4 °F 30.08 in Calm   2.0 mph 79% 0.00 in BKN
10:20 80.8 °F 73.3 °F 30.08 in WSW 1.0 mph 3.0 mph 78% 0.00 in BKN
10:25 81.0 °F 73.9 °F 30.08 in Calm   2.0 mph 79% 0.00 in BKN
10:30 81.2 °F 73.7 °F 30.08 in Calm   1.0 mph 78% 0.00 in BKN
10:35 81.4 °F 73.9 °F 30.08 in Calm   1.0 mph 78% 0.00 in BKN
10:40 81.7 °F 73.8 °F 30.08 in Calm   2.0 mph 77% 0.00 in BKN
10:45 81.9 °F 74.0 °F 30.08 in Calm   1.0 mph 77% 0.00 in BKN
10:50 82.1 °F 73.8 °F 30.08 in Calm   1.0 mph 76% 0.00 in BKN
10:55 82.2 °F 73.9 °F 30.08 in Calm   2.0 mph 76% 0.00 in BKN
11:00 82.3 °F 73.6 °F 30.08 in NE 1.0 mph 2.0 mph 75% 0.00 in BKN
11:05 82.2 °F 73.9 °F 30.07 in Calm   2.0 mph 76% 0.00 in BKN
11:10 82.3 °F 74.0 °F 30.07 in Calm   2.0 mph 76% 0.00 in BKN
11:15 82.6 °F 74.3 °F 30.08 in Calm   1.0 mph 76% 0.00 in SCT
11:20 83.0 °F 73.1 °F 30.08 in West 1.0 mph 2.0 mph 72% 0.00 in SCT
11:25 83.3 °F 73.8 °F 30.07 in Calm   1.0 mph 73% 0.00 in SCT
11:30 83.6 °F 74.0 °F 30.07 in Calm   2.0 mph 73% 0.00 in SCT
11:35 83.9 °F 74.3 °F 30.07 in Calm   1.0 mph 73% 0.00 in SCT
11:40 84.2 °F 73.8 °F 30.07 in West 1.0 mph 2.0 mph 71% 0.00 in SCT
11:45 84.3 °F 73.0 °F 30.08 in Calm   3.0 mph 69% 0.00 in SCT
11:50 84.2 °F 74.2 °F 30.07 in Calm   3.0 mph 72% 0.00 in SCT
11:55 84.2 °F 73.3 °F 30.07 in Calm   1.0 mph 70% 0.00 in SCT
12:00 84.1 °F 73.7 °F 30.07 in NW 1.0 mph 1.0 mph 71% 0.00 in SCT
12:05 84.3 °F 74.3 °F 30.07 in Calm   1.0 mph 72% 0.00 in SCT
12:10 84.8 °F 73.5 °F 30.07 in Calm   1.0 mph 69% 0.00 in SCT
12:15 85.1 °F 73.8 °F 30.07 in Calm   1.0 mph 69% 0.00 in BKN
12:20 85.6 °F 73.8 °F 30.07 in Calm   2.0 mph 68% 0.00 in BKN
12:25 86.1 °F 73.8 °F 30.07 in WSW 1.0 mph 2.0 mph 67% 0.00 in BKN
12:30 86.8 °F 73.6 °F 30.07 in Calm   2.0 mph 65% 0.00 in BKN
12:35 87.6 °F 73.9 °F 30.07 in Calm   2.0 mph 64% 0.00 in BKN
12:40 88.2 °F 74.4 °F 30.07 in Calm   1.0 mph 64% 0.00 in BKN
12:45 88.6 °F 73.9 °F 30.07 in Calm   2.0 mph 62% 0.00 in BKN
12:50 89.2 °F 74.0 °F 30.07 in WNW 1.0 mph 2.0 mph 61% 0.00 in BKN
12:55 89.3 °F 73.6 °F 30.07 in ENE 1.0 mph 2.0 mph 60% 0.00 in BKN
13:00 89.3 °F 73.1 °F 30.07 in Calm   3.0 mph 59% 0.00 in BKN
13:05 89.0 °F 73.3 °F 30.07 in Calm   5.0 mph 60% 0.00 in BKN
13:10 88.6 °F 72.9 °F 30.06 in Calm   2.0 mph 60% 0.00 in BKN
13:15 88.4 °F 74.2 °F 30.07 in Calm   1.0 mph 63% 0.00 in BKN
13:20 88.2 °F 73.6 °F 30.07 in Calm   3.0 mph 62% 0.00 in BKN
13:25 87.5 °F 72.8 °F 30.07 in Calm   2.0 mph 62% 0.00 in BKN
13:30 87.2 °F 73.5 °F 30.06 in Calm   1.0 mph 64% 0.00 in BKN
13:35 87.7 °F 73.6 °F 30.06 in Calm   2.0 mph 63% 0.00 in BKN
13:40 88.1 °F 73.0 °F 30.06 in Calm   1.0 mph 61% 0.00 in BKN
13:45 88.6 °F 72.9 °F 30.06 in Calm     60% 0.00 in BKN
13:50 88.8 °F 73.6 °F 30.06 in Calm   2.0 mph 61% 0.00 in BKN
13:55 89.0 °F 72.3 °F 30.06 in Calm   2.0 mph 58% 0.00 in BKN
14:00 89.0 °F 73.3 °F 30.05 in Calm   5.0 mph 60% 0.00 in BKN
14:05 88.9 °F 74.7 °F 30.05 in Calm   1.0 mph 63% 0.00 in BKN
14:10 88.9 °F 72.8 °F 30.05 in WSW 1.0 mph 3.0 mph 59% 0.00 in BKN
14:15 88.8 °F 74.1 °F 30.05 in Calm   3.0 mph 62% 0.00 in BKN
14:20 89.1 °F 73.4 °F 30.05 in Calm   2.0 mph 60% 0.00 in BKN
14:25 88.7 °F 73.0 °F 30.04 in Calm   3.0 mph 60% 0.00 in BKN
14:30 88.7 °F 74.5 °F 30.04 in Calm   1.0 mph 63% 0.00 in BKN
14:40 89.1 °F 74.4 °F 30.04 in Calm   1.0 mph 62% 0.00 in BKN
14:45 88.7 °F 73.5 °F 30.04 in Calm   2.0 mph 61% 0.00 in BKN
14:50 88.2 °F 74.5 °F 30.03 in Calm     64% 0.00 in BKN
14:55 88.1 °F 73.4 °F 30.03 in Calm   2.0 mph 62% 0.00 in BKN
15:00 88.3 °F 72.7 °F 30.03 in Calm   1.0 mph 60% 0.00 in BKN
15:05 88.3 °F 73.1 °F 30.03 in Calm   1.0 mph 61% 0.00 in BKN
15:10 88.1 °F 73.0 °F 30.03 in WNW 1.0 mph 3.0 mph 61% 0.00 in BKN
15:15 88.3 °F 74.1 °F 30.03 in Calm   1.0 mph 63% 0.00 in BKN
15:20 88.7 °F 73.5 °F 30.03 in Calm   1.0 mph 61% 0.00 in BKN
15:25 88.7 °F 73.0 °F 30.03 in West 1.0 mph 3.0 mph 60% 0.00 in BKN
15:30 88.6 °F 72.9 °F 30.02 in Calm   1.0 mph 60% 0.00 in BKN
15:35 88.5 °F 73.3 °F 30.03 in Calm   1.0 mph 61% 0.00 in BKN
15:40 88.1 °F 73.4 °F 30.02 in Calm   1.0 mph 62% 0.00 in BKN
15:45 87.8 °F 73.6 °F 30.02 in Calm   1.0 mph 63% 0.00 in BKN
15:50 87.6 °F 73.9 °F 30.02 in ENE 1.0 mph 2.0 mph 64% 0.00 in BKN
15:55 87.8 °F 74.1 °F 30.01 in Calm   1.0 mph 64% 0.00 in BKN
16:00 88.2 °F 73.0 °F 30.01 in Calm   1.0 mph 61% 0.00 in BKN
16:10 88.5 °F 74.3 °F 30.01 in Calm   1.0 mph 63% 0.00 in BKN
16:15 88.8 °F 73.6 °F 30.01 in Calm   1.0 mph 61% 0.00 in BKN
16:20 88.9 °F 74.2 °F 30.01 in Calm   3.0 mph 62% 0.00 in BKN
16:25 88.8 °F 73.1 °F 30.00 in Calm   3.0 mph 60% 0.00 in BKN
16:30 88.8 °F 74.1 °F 30.00 in Calm     62% 0.00 in BKN
16:35 88.8 °F 73.6 °F 30.00 in Calm   2.0 mph 61% 0.00 in BKN
16:40 88.4 °F 73.7 °F 30.00 in Calm     62% 0.00 in BKN
16:45 87.9 °F 73.7 °F 30.00 in Calm     63% 0.00 in BKN
16:50 87.6 °F 73.4 °F 30.00 in Calm   1.0 mph 63% 0.00 in BKN
16:55 87.6 °F 73.4 °F 30.00 in Calm   1.0 mph 63% 0.00 in BKN
17:00 87.5 °F 73.8 °F 29.99 in Calm   2.0 mph 64% 0.00 in BKN
17:05 87.6 °F 74.4 °F 29.99 in Calm   1.0 mph 65% 0.00 in BKN
17:10 87.6 °F 73.9 °F 29.99 in Calm   1.0 mph 64% 0.00 in BKN
17:15 87.4 °F 73.8 °F 29.99 in Calm   1.0 mph 64% 0.00 in BKN
17:20 87.4 °F 74.6 °F 29.99 in Calm   1.0 mph 66% 0.00 in BKN
17:25 87.2 °F 74.9 °F 29.98 in Calm   1.0 mph 67% 0.00 in BKN
17:30 87.1 °F 74.4 °F 29.98 in Calm   1.0 mph 66% 0.00 in BKN
17:35 87.1 °F 73.9 °F 29.98 in Calm     65% 0.00 in BKN
17:40 87.2 °F 73.1 °F 29.98 in Calm   2.0 mph 63% 0.00 in BKN
17:45 87.5 °F 73.8 °F 29.98 in Calm   2.0 mph 64% 0.00 in BKN
17:50 87.7 °F 74.5 °F 29.98 in Calm   2.0 mph 65% 0.00 in BKN
17:55 87.4 °F 73.7 °F 29.98 in Calm     64% 0.00 in BKN
18:00 87.3 °F 74.1 °F 29.98 in Calm   1.0 mph 65% 0.00 in BKN
18:05 87.2 °F 74.0 °F 29.99 in Calm   1.0 mph 65% 0.00 in BKN
18:10 87.0 °F 74.3 °F 29.98 in Calm     66% 0.00 in BKN
18:15 86.7 °F 74.0 °F 29.98 in Calm     66% 0.00 in SCT
18:20 86.5 °F 73.3 °F 29.98 in Calm   1.0 mph 65% 0.00 in SCT
18:25 86.3 °F 74.0 °F 29.98 in Calm   2.0 mph 67% 0.00 in SCT
18:30 86.1 °F 73.4 °F 29.98 in Calm   1.0 mph 66% 0.00 in SCT
18:35 86.0 °F 73.3 °F 29.99 in Calm     66% 0.00 in SCT
18:40 85.8 °F 74.0 °F 29.99 in Calm     68% 0.00 in SCT
18:45 85.6 °F 74.3 °F 29.99 in Calm   1.0 mph 69% 0.00 in SCT
18:50 85.4 °F 74.1 °F 29.99 in Calm     69% 0.00 in SCT
19:00 85.2 °F 73.9 °F 29.99 in Calm   1.0 mph 69% 0.00 in SCT
19:05 85.2 °F 74.3 °F 29.99 in Calm     70% 0.00 in SCT
19:10 85.1 °F 74.6 °F 30.00 in Calm   1.0 mph 71% 0.00 in SCT
19:15 84.9 °F 73.6 °F 30.00 in Calm     69% 0.00 in SCT
19:20 84.8 °F 74.3 °F 30.00 in Calm     71% 0.00 in SCT
19:25 84.7 °F 74.2 °F 30.00 in Calm   1.0 mph 71% 0.00 in SCT
19:30 84.5 °F 74.5 °F 30.00 in Calm     72% 0.00 in SCT
19:35 84.3 °F 74.3 °F 30.00 in Calm     72% 0.00 in SCT
19:40 84.1 °F 74.5 °F 30.00 in Calm     73% 0.00 in SCT
19:45 83.9 °F 74.3 °F 30.00 in Calm     73% 0.00 in SCT
19:50 83.6 °F 74.0 °F 30.00 in Calm     73% 0.00 in SCT
19:55 83.4 °F 73.8 °F 30.00 in Calm     73% 0.00 in SCT
20:00 83.3 °F 74.5 °F 30.00 in Calm   1.0 mph 75% 0.00 in SCT
20:05 83.2 °F 74.0 °F 30.00 in Calm     74% 0.00 in SCT
20:10 83.0 °F 73.9 °F 30.01 in Calm     74% 0.00 in SCT
20:15 82.9 °F 74.2 °F 30.01 in Calm     75% 0.00 in SCT
20:20 82.7 °F 73.9 °F 30.01 in Calm     75% 0.00 in SCT
20:25 82.4 °F 74.1 °F 30.01 in Calm     76% 0.00 in SCT
20:30 82.2 °F 73.9 °F 30.01 in Calm     76% 0.00 in SCT
20:35 82.1 °F 73.7 °F 30.01 in Calm   1.0 mph 76% 0.00 in SCT
20:40 81.9 °F 74.0 °F 30.01 in Calm     77% 0.00 in SCT
20:45 81.7 °F 73.8 °F 30.02 in Calm     77% 0.00 in SCT
20:50 81.5 °F 73.6 °F 30.02 in Calm     77% 0.00 in SCT
20:55 81.3 °F 73.8 °F 30.02 in Calm     78% 0.00 in SCT
21:00 81.2 °F 73.6 °F 30.02 in Calm     78% 0.00 in SCT
21:05 81.0 °F 73.9 °F 30.02 in Calm     79% 0.00 in SCT
21:10 80.8 °F 74.0 °F 30.02 in Calm     80% 0.00 in SCT
21:15 80.6 °F 73.8 °F 30.03 in Calm     80% 0.00 in FEW
21:20 80.3 °F 73.6 °F 30.03 in Calm     80% 0.00 in FEW
21:25 80.1 °F 73.7 °F 30.03 in Calm     81% 0.00 in FEW
21:30 80.0 °F 73.6 °F 30.03 in Calm     81% 0.00 in FEW
21:35 79.9 °F 73.5 °F 30.03 in Calm     81% 0.00 in FEW
21:45 79.7 °F 73.3 °F 30.04 in Calm     81% 0.00 in FEW
21:50 79.6 °F 73.6 °F 30.04 in Calm     82% 0.00 in FEW
21:55 79.4 °F 73.5 °F 30.04 in Calm     82% 0.00 in FEW
22:00 79.4 °F 73.4 °F 30.05 in Calm     82% 0.00 in FEW
22:05 79.3 °F 73.3 °F 30.05 in Calm     82% 0.00 in FEW
22:10 79.2 °F 73.6 °F 30.06 in Calm     83% 0.00 in FEW
22:15 79.1 °F 73.5 °F 30.06 in Calm     83% 0.00 in FEW
22:20 79.0 °F 73.4 °F 30.06 in Calm     83% 0.00 in FEW
22:25 78.9 °F 73.7 °F 30.06 in Calm     84% 0.00 in FEW
22:30 78.8 °F 73.6 °F 30.07 in Calm     84% 0.00 in FEW
22:35 78.7 °F 73.5 °F 30.07 in Calm     84% 0.00 in FEW
22:40 78.5 °F 73.3 °F 30.07 in Calm     84% 0.00 in FEW
22:45 78.4 °F 73.5 °F 30.07 in Calm     85% 0.00 in FEW
22:50 78.3 °F 73.4 °F 30.07 in Calm     85% 0.00 in FEW
22:55 78.2 °F 73.3 °F 30.07 in Calm     85% 0.00 in FEW
23:00 78.2 °F 73.6 °F 30.07 in Calm     86% 0.00 in FEW
23:05 78.1 °F 73.6 °F 30.07 in Calm     86% 0.00 in FEW
23:10 78.0 °F 73.5 °F 30.07 in Calm     86% 0.00 in FEW
23:15 78.0 °F 73.5 °F 30.07 in Calm     86% 0.00 in FEW
23:20 77.9 °F 73.4 °F 30.07 in Calm     86% 0.00 in FEW
23:25 77.9 °F 73.4 °F 30.07 in Calm     86% 0.00 in FEW
23:30 77.9 °F 73.4 °F 30.07 in Calm     86% 0.00 in FEW
23:35 77.9 °F 73.4 °F 30.06 in Calm     86% 0.00 in FEW
23:40 77.8 °F 73.2 °F 30.06 in Calm     86% 0.00 in FEW
23:45 77.7 °F 73.2 °F 30.06 in Calm     86% 0.00 in FEW
23:50 77.6 °F 73.1 °F 30.06 in Calm     86% 0.00 in FEW
23:55 77.5 °F 73.0 °F 30.06 in Calm     86% 0.00 in FEW
Piedmont Bend
Compliments of Weather Underground - 4 mb